TimeCST,TemperatureF,Dew PointF,Humidity,Sea Level PressureIn,VisibilityMPH,Wind Direction,Wind SpeedMPH,Gust SpeedMPH,PrecipitationIn,Events,Conditions,WindDirDegrees,DateUTC
12:15 AM,21.2,19.4,93,30.17,7.0,Calm,Calm,-,N/A,,Unknown,0,2013-12-01 06:15:00
12:35 AM,21.2,19.4,93,30.16,7.0,NE,3.5,-,N/A,,Unknown,40,2013-12-01 06:35:00
12:52 AM,19.4,19.4,100,30.16,7.0,Calm,Calm,-,N/A,,Unknown,0,2013-12-01 06:52:00
1:14 AM,19.4,19.4,100,30.17,7.0,WNW,3.5,-,N/A,,Unknown,290,2013-12-01 07:14:00
1:34 AM,19.4,19.4,100,30.16,5.0,WNW,3.5,-,N/A,,Mist,290,2013-12-01 07:34:00
1:40 AM,19.4,19.4,100,30.16,5.0,Calm,Calm,-,N/A,,Mist,0,2013-12-01 07:40:00
2:15 AM,19.4,19.4,100,30.16,4.0,Calm,Calm,-,N/A,,Mist,0,2013-12-01 08:15:00
2:35 AM,19.4,19.4,100,30.16,3.0,Calm,Calm,-,N/A,,Mist,0,2013-12-01 08:35:00
2:52 AM,19.4,17.6,93,30.17,3.0,Calm,Calm,-,N/A,,Mist,0,2013-12-01 08:52:00
3:14 AM,19.4,17.6,93,30.17,2.0,West,4.6,-,N/A,,Mist,260,2013-12-01 09:14:00
3:35 AM,19.4,17.6,93,30.16,1.2,Calm,Calm,-,N/A,,Mist,0,2013-12-01 09:35:00
3:53 AM,19.4,17.6,93,30.16,1.0,Calm,Calm,-,N/A,,Mist,0,2013-12-01 09:53:00
4:14 AM,19.4,17.6,93,30.16,0.8,Calm,Calm,-,N/A,,Mist,0,2013-12-01 10:14:00
4:35 AM,19.4,17.6,93,30.16,0.8,West,3.5,-,N/A,,Mist,270,2013-12-01 10:35:00
4:53 AM,17.6,17.6,100,30.16,0.8,Calm,Calm,-,N/A,,Mist,0,2013-12-01 10:53:00
5:14 AM,19.4,17.6,93,30.16,0.8,Calm,Calm,-,N/A,,Mist,0,2013-12-01 11:14:00
5:34 AM,19.4,17.6,93,30.15,0.8,NW,4.6,-,N/A,,Mist,310,2013-12-01 11:34:00
5:53 AM,17.6,17.6,100,30.16,1.0,Calm,Calm,-,N/A,,Mist,0,2013-12-01 11:53:00
6:15 AM,17.6,17.6,100,30.15,1.2,Calm,Calm,-,N/A,,Mist,0,2013-12-01 12:15:00
6:35 AM,17.6,17.6,100,30.16,1.0,Calm,Calm,-,N/A,,Mist,0,2013-12-01 12:35:00
6:53 AM,17.6,17.6,100,30.15,0.8,NNW,3.5,-,N/A,,Mist,340,2013-12-01 12:53:00
7:15 AM,17.6,17.6,100,30.15,1.2,Calm,Calm,-,N/A,,Mist,0,2013-12-01 13:15:00
7:35 AM,17.6,17.6,100,30.15,1.0,Calm,Calm,-,N/A,,Mist,0,2013-12-01 13:35:00
7:52 AM,17.6,17.6,100,30.14,1.0,Calm,Calm,-,N/A,,Mist,0,2013-12-01 13:52:00
8:15 AM,17.6,17.6,100,30.15,0.8,Calm,Calm,-,N/A,,Mist,0,2013-12-01 14:15:00
8:35 AM,17.6,17.6,100,30.15,1.2,NNE,3.5,-,N/A,,Mist,30,2013-12-01 14:35:00
8:53 AM,17.6,17.6,100,30.15,1.0,Calm,Calm,-,N/A,,Mist,0,2013-12-01 14:53:00
9:14 AM,17.6,17.6,100,30.15,1.0,Calm,Calm,-,N/A,,Mist,0,2013-12-01 15:14:00
9:35 AM,17.6,17.6,100,30.14,1.0,Calm,Calm,-,N/A,,Mist,0,2013-12-01 15:35:00
9:53 AM,19.4,17.6,93,30.14,1.2,ESE,3.5,-,N/A,,Mist,120,2013-12-01 15:53:00
10:15 AM,19.4,17.6,93,30.14,2.0,Calm,Calm,-,N/A,,Mist,0,2013-12-01 16:15:00
10:35 AM,17.6,17.6,100,30.14,2.5,Calm,Calm,-,N/A,,Mist,0,2013-12-01 16:35:00
10:52 AM,19.4,17.6,93,30.14,4.0,Calm,Calm,-,N/A,,Mist,0,2013-12-01 16:52:00
11:14 AM,19.4,17.6,93,30.13,4.0,Calm,Calm,-,N/A,,Mist,0,2013-12-01 17:14:00
11:34 AM,19.4,17.6,93,30.12,4.0,Calm,Calm,-,N/A,,Mist,0,2013-12-01 17:34:00
11:53 AM,19.4,17.6,93,30.11,4.0,Calm,Calm,-,N/A,,Mist,0,2013-12-01 17:53:00
12:15 PM,19.4,17.6,93,30.10,-9999.0,Calm,Calm,-,N/A,,Mist,0,2013-12-01 18:15:00
12:35 PM,19.4,17.6,93,30.09,5.0,Calm,Calm,-,N/A,,Mist,0,2013-12-01 18:35:00
12:53 PM,19.4,17.6,93,30.07,7.0,Calm,Calm,-,N/A,,Unknown,0,2013-12-01 18:53:00
1:15 PM,19.4,17.6,93,30.07,7.0,ENE,3.5,-,N/A,,Unknown,60,2013-12-01 19:15:00
1:35 PM,19.4,17.6,93,30.06,7.0,Calm,Calm,-,N/A,,Unknown,0,2013-12-01 19:35:00
1:52 PM,19.4,19.4,100,30.05,7.0,Calm,Calm,-,N/A,,Unknown,0,2013-12-01 19:52:00
2:14 PM,19.4,17.6,93,30.04,7.0,Calm,Calm,-,N/A,,Unknown,0,2013-12-01 20:14:00
2:35 PM,19.4,19.4,100,30.02,10.0,SE,3.5,-,N/A,,Unknown,140,2013-12-01 20:35:00
2:52 PM,19.4,19.4,100,30.02,10.0,ESE,3.5,-,N/A,,Unknown,120,2013-12-01 20:52:00
3:15 PM,19.4,19.4,100,30.01,7.0,SE,4.6,-,N/A,,Unknown,130,2013-12-01 21:15:00
3:35 PM,19.4,19.4,100,30.01,7.0,SE,3.5,-,N/A,,Unknown,130,2013-12-01 21:35:00
3:53 PM,19.4,19.4,100,30.00,7.0,SE,4.6,-,N/A,,Unknown,140,2013-12-01 21:53:00
4:15 PM,19.4,17.6,93,30.00,5.0,ESE,5.8,-,N/A,,Mist,110,2013-12-01 22:15:00
4:34 PM,19.4,17.6,93,29.99,3.0,East,4.6,-,N/A,,Mist,90,2013-12-01 22:34:00
4:52 PM,19.4,19.4,100,29.99,4.0,East,5.8,-,N/A,,Mist,100,2013-12-01 22:52:00
5:14 PM,19.4,17.6,93,29.98,7.0,SE,5.8,-,N/A,,Unknown,140,2013-12-01 23:14:00
5:35 PM,19.4,17.6,93,29.98,5.0,East,4.6,-,N/A,,Mist,100,2013-12-01 23:35:00
5:53 PM,19.4,17.6,93,29.98,5.0,ESE,5.8,-,N/A,,Mist,110,2013-12-01 23:53:00
6:15 PM,19.4,19.4,100,29.97,4.0,ESE,6.9,-,N/A,,Mist,120,2013-12-02 00:15:00
6:35 PM,19.4,19.4,100,29.95,4.0,ESE,6.9,-,N/A,,Mist,120,2013-12-02 00:35:00
6:53 PM,19.4,19.4,100,29.95,5.0,ESE,5.8,-,N/A,,Mist,120,2013-12-02 00:53:00
7:14 PM,19.4,19.4,100,29.94,4.0,ESE,6.9,-,N/A,,Mist,120,2013-12-02 01:14:00
7:34 PM,21.2,19.4,93,29.94,4.0,ESE,5.8,-,N/A,,Mist,110,2013-12-02 01:34:00
7:53 PM,21.2,19.4,93,29.93,5.0,ESE,4.6,-,N/A,,Mist,110,2013-12-02 01:53:00
8:15 PM,21.2,19.4,93,29.92,5.0,ESE,4.6,-,N/A,,Mist,110,2013-12-02 02:15:00
8:34 PM,21.2,19.4,93,29.91,5.0,ESE,4.6,-,N/A,,Mist,110,2013-12-02 02:34:00
8:53 PM,21.2,19.4,93,29.90,5.0,East,4.6,-,N/A,,Mist,90,2013-12-02 02:53:00
9:15 PM,21.2,19.4,93,29.90,5.0,ESE,3.5,-,N/A,,Mist,110,2013-12-02 03:15:00
9:35 PM,21.2,19.4,93,29.89,5.0,East,4.6,-,N/A,,Mist,80,2013-12-02 03:35:00
9:53 PM,21.2,21.2,100,29.89,5.0,East,5.8,-,N/A,,Mist,90,2013-12-02 03:53:00
10:15 PM,21.2,21.2,100,29.88,5.0,ESE,3.5,-,N/A,,Mist,120,2013-12-02 04:15:00
10:34 PM,21.2,21.2,100,29.88,5.0,ESE,3.5,-,N/A,,Mist,110,2013-12-02 04:34:00
10:53 PM,21.2,21.2,100,29.87,5.0,East,4.6,-,N/A,,Mist,90,2013-12-02 04:53:00
11:15 PM,21.2,21.2,100,29.87,5.0,ESE,3.5,-,N/A,,Mist,110,2013-12-02 05:15:00
11:35 PM,21.2,21.2,100,29.86,4.0,East,5.8,-,N/A,Snow,Light Snow,100,2013-12-02 05:35:00
11:53 PM,21.2,21.2,100,29.86,4.0,East,4.6,-,N/A,Snow,Light Snow,100,2013-12-02 05:53:00